Regional Weather Roundup
Issued by NWS

Home | Current Version | Previous Version | Text Only | Print | Product List | Glossary On
Versions: 1 2 3 4 5 6 7 8 9 10 11 12 13 14 15 16 17 18 19 20 21 22 23 24 25 26 27
000
ASCA42 TJSJ 050310
RWRPR
PUERTO RICO/U.S. VIRGIN ISLANDS HOURLY WEATHER ROUNDUP
NATIONAL WEATHER SERVICE SAN JUAN PR
1100 PM AST SUN DEC 04 2016

PRZ001>002-007>008-010-050400-
PUERTO RICO

CITY           SKY/WX    TMP DP  RH WIND       PRES   REMARKS
SAN JUAN LMM   PTCLDY    81  73  78 CALM      30.00S
PONCE          MOCLDY    77  73  88 CALM      30.01
CEIBA          MOCLDY    75  73  94 CALM      30.02S
$$

VIZ001>002-050400-
U.S. VIRGIN ISLANDS

CITY           SKY/WX    TMP DP  RH WIND       PRES   REMARKS
CHARLOTTE AMA  CLEAR     79  73  83 CALM      30.00R
CHRISTIANSTED  PTCLDY    73  72  94 N5        30.00S
$$

HOURLY WEATHER ROUNDUP FOR THE NEWS MEDIA

CITY           SKY/WX    TMP DP  RH WIND       PRES   REMARKS
ORLANDO        CLEAR     68  64  87 SE3       30.07R
NEW YORK       CLOUDY    40  23  50 E5        30.18F
NEWARK         CLOUDY    42  23  46 E6        30.15F
CHICAGO        MOCLDY    27  26  96 SW6       29.88R FOG     WCI  20
HARTFORD       CLOUDY    25  20  81 N3        30.18S
BOSTON         PTCLDY    33  21  61 NW5       30.20F WCI  29
DALLAS         CLOUDY    50  42  74 NE6       30.03F
PHILADELPHIA   CLOUDY    43  31  62 S3        30.15F
LOS ANGELES    CLOUDY    60  54  80 W5        29.99R
WASHINGTON DC  LGT RAIN  39  33  79 S7        30.11F WCI  34



USA.gov is the U.S. government's official web portal to all federal, state and local government web resources and services.